Simultaneous Nadir Overpasses (SNOs) Predictions

Prediction of SNOs between NOAA-19 and METOP-C Satellite Orbit:

Table of predicted SNOs for the next 14.0 days since TLE Epoch: 4/8/2023
Index Date (NOAA-19) Time (NOAA-19) Lat,Lon (NOAA-19) SZA (NOAA-19 ) Date (METOP-C) Time (METOP-C) Lat,Lon (METOP-C) SZA (METOP-C ) Distance(km) Time Diff (sec)
1 04/11/2023 03:07:01 80.93, 167.91 74.33 04/11/2023 03:08:11 80.93, 167.83 74.34 1.42 70
2 04/11/2023 03:58:02 -80.93, -24.71 105.68 04/11/2023 03:58:51 -80.94, -24.58 105.64 2.58 49
3 04/11/2023 04:49:00 80.93, 142.50 74.31 04/11/2023 04:49:33 80.92, 142.35 74.30 2.82 33
4 04/11/2023 05:40:01 -80.93, -50.12 105.69 04/11/2023 05:40:13 -80.94, -50.06 105.68 1.03 12
5 04/11/2023 06:30:59 80.93, 117.09 74.29 04/11/2023 06:30:54 80.93, 117.23 74.30 2.48 5
6 04/11/2023 07:22:00 -80.93, -75.52 105.71 04/11/2023 07:21:35 -80.93, -75.54 105.73 0.61 25
7 04/11/2023 08:12:58 80.93, 91.68 74.28 04/11/2023 08:12:16 80.93, 91.75 74.26 1.42 42



Historial Predications of SNOs between NOAA-19 and METOP-C
